Stations météo

Publicité
Montpellier, France (7643): Température de l'air & dewpoint: 13.10.2018 22:00:00 - 19.10.2018 22:00:00 (CEST)Montpellier, France (7643): Température de l'air 5cm: 13.10.2018 22:00:00 - 19.10.2018 22:00:00 (CEST)Montpellier, France (7643): Température de l'air -20cm & Température de l'air -100cm: 13.10.2018 22:00:00 - 19.10.2018 22:00:00 (CEST)Montpellier, France (7643): Vitesse du vent & gusts: 13.10.2018 22:00:00 - 19.10.2018 22:00:00 (CEST)Montpellier, France (7643): Direction du vent: 13.10.2018 22:00:00 - 19.10.2018 22:00:00 (CEST)Montpellier, France (7643): reduced air pressure: 13.10.2018 22:00:00 - 19.10.2018 22:00:00 (CEST)Montpellier, France (7643): visibility: 13.10.2018 22:00:00 - 19.10.2018 22:00:00 (CEST)Montpellier, France (7643): Ensoleillement: 13.10.2018 22:00:00 - 19.10.2018 22:00:00 (CEST)Montpellier, France (7643): Quantités de précipitations: 13.10.2018 22:00:00 - 19.10.2018 22:00:00 (CEST)
Date & Time tt [°C] td [°C] tt 5cm [°C] tt -20cm [°C] tt -100cm [°C] ff [km/h] ff [knt] fx [km/h] fx [knt] dd ppp [hPa] vv [km] sd [min] rr [mm]
19.10.2018 22:00:00 17,5 13,8 13,4 19,4 20,5 5 3 10 5 NNW 1019,3 13 0 0,0
19.10.2018 21:00:00 18,6 14,5 14,9 19,6 20,5 6 4 9 5 N 1018,7 9 0 0,0
19.10.2018 20:00:00 20,0 13,9 14,8 19,7 20,5 4 2 5 3 WNW 1018,4 25 0 0,0
19.10.2018 19:00:00 21,4 14,3 16,5 19,7 20,5 4 2 5 3 SW 1017,8 30 0 0,0
19.10.2018 18:00:00 23,6 14,3 23,5 19,7 20,5 2 1 7 4 S 1017,4 19 13 0,0
19.10.2018 17:00:00 22,9 15,2 23,3 19,5 20,5 5 3 9 5 SSE 1017,4 20 32 0,0
19.10.2018 16:00:00 23,5 14,2 26,0 19,2 20,5 7 4 10 5 SE 1017,4 19 55 0,0
19.10.2018 15:00:00 24,1 14,2 25,2 18,9 20,5 6 4 13 7 E 1017,5 20 21 0,0
19.10.2018 14:00:00 23,4 13,8 25,0 18,4 20,5 9 5 19 10 NE 1017,8 20 49 0,0
19.10.2018 13:00:00 21,7 13,1 24,0 18,1 20,5 11 6 20 11 NNE 1018,3 20 27 0,0
19.10.2018 12:00:00 21,0 12,4 24,2 17,8 20,5 12 6 18 10 NNE 1018,3 19 60 0,0
19.10.2018 11:00:00 19,7 12,2 19,3 17,7 20,5 11 6 16 9 NNE 1018,5 31 60 0,0
19.10.2018 10:00:00 17,3 11,6 15,3 17,8 20,5 6 3 18 10 NE 1018,0 20 1 0,0
19.10.2018 09:00:00 15,4 11,0 12,5 17,8 20,5 10 5 15 8 NNE 1017,1 28 9 0,0
19.10.2018 08:00:00 14,6 10,6 13,3 18,0 20,5 5 3 15 8 NNE 1016,5 26 0 0,0
19.10.2018 07:00:00 15,5 10,9 13,9 18,1 20,5 12 6 19 10 N 1016,0 26 0 0,0
19.10.2018 06:00:00 15,3 11,3 13,3 18,2 20,5 8 5 13 7 NNE 1016,1 24 0 0,0
19.10.2018 05:00:00 15,4 12,3 11,3 18,4 20,5 5 3 11 6 N 1016,1 23 0 0,0
19.10.2018 04:00:00 14,6 11,6 12,1 18,5 20,5 10 5 16 9 NE 1015,7 20 0 0,0
19.10.2018 03:00:00 15,9 12,6 13,7 18,7 20,5 12 6 16 8 NNE 1015,6 19 0 0,0
19.10.2018 02:00:00 15,3 12,8 13,7 18,8 20,5 9 5 18 10 NNE 1015,8 18 0 0,0
19.10.2018 01:00:00 16,0 13,3 13,7 18,9 20,5 14 7 18 10 N 1015,5 17 0 0,0
19.10.2018 00:00:00 16,6 12,9 12,7 19,1 20,5 9 5 11 6 N 1015,6 17 0 0,0
18.10.2018 23:00:00 16,0 12,7 12,1 19,3 20,6 6 4 8 4 N 1015,1 18 0 0,0
18.10.2018 22:00:00 16,7 13,0 14,3 19,5 20,5 8 5 16 9 N 1014,6 19 0 0,0
18.10.2018 21:00:00 18,2 13,5 14,7 19,6 20,5 9 5 15 8 N 1014,2 18 0 0,0
18.10.2018 20:00:00 19,0 13,8 15,7 19,8 20,6 6 3 15 8 N 1013,8 20 0 0,0
18.10.2018 19:00:00 20,4 14,1 18,1 19,8 20,6 7 4 14 7 NNE 1013,2 26 19 0,0
18.10.2018 18:00:00 22,9 14,7 22,6 19,7 20,6 10 5 17 9 N 1013,0 32 60 0,0
18.10.2018 17:00:00 23,5 13,4 24,1 19,5 20,6 13 7 16 9 NNE 1013,1 19 60 0,0
18.10.2018 16:00:00 23,6 13,2 24,6 19,3 20,6 13 7 18 10 ENE 1013,5 20 24 0,0
18.10.2018 15:00:00 23,3 12,9 24,1 19,1 20,6 14 8 21 11 NE 1013,7 40 3 0,0
18.10.2018 14:00:00 22,6 13,6 23,8 18,8 20,6 12 6 21 11 NE 1014,0 38 20 0,0
18.10.2018 13:00:00 22,2 15,1 22,3 18,7 20,6 11 6 22 12 NNE 1014,5 29 3 0,0
18.10.2018 12:00:00 20,1 14,0 18,7 18,6 20,6 11 6 19 10 NNE 1014,6 20 0 0,0
18.10.2018 11:00:00 18,8 13,6 18,4 18,5 20,6 9 5 16 9 NNE 1014,9 19 0 0,0
18.10.2018 10:00:00 18,0 13,7 17,0 18,5 20,6 11 6 16 9 NNE 1014,7 18 0 0,0
18.10.2018 09:00:00 17,2 13,5 16,2 18,6 20,6 8 4 15 8 NNE 1014,4 18 0 0,0
18.10.2018 08:00:00 17,0 13,7 16,0 18,6 20,6 10 5 21 12 N 1014,1 19 0 0,0
18.10.2018 07:00:00 17,1 13,8 15,6 18,7 20,6 16 9 31 17 NNE 1013,9 19 0 0,0
18.10.2018 06:00:00 17,0 14,3 15,7 18,7 20,6 13 7 21 11 N 1013,8 17 0 0,0
18.10.2018 05:00:00 16,7 15,1 15,9 18,8 20,6 12 6 16 9 N 1013,7 14 0 0,0
18.10.2018 04:00:00 16,8 15,1 16,0 18,8 20,6 9 5 15 8 ENE 1014,6 9 0 0,4
18.10.2018 03:00:00 16,8 15,0 16,1 18,9 20,6 4 2 9 5 NE 1014,6 16 0 0,0
18.10.2018 02:00:00 16,9 15,1 16,1 19,0 20,7 4 2 9 5 NNE 1014,8 16 0 0,0
18.10.2018 01:00:00 17,2 15,2 16,2 19,0 20,7 4 2 9 5 NNE 1015,1 11 0 0,0
18.10.2018 00:00:00 17,6 15,6 16,6 19,0 20,6 9 5 10 6 NW 1015,1 10 0 0,0
17.10.2018 23:00:00 17,9 15,7 16,5 19,1 20,7 6 3 9 5 NNW 1015,4 11 0 0,0
17.10.2018 22:00:00 17,9 15,3 16,7 19,2 20,7 3 2 26 14 E 1015,3 11 0 0,0
17.10.2018 21:00:00 18,7 14,8 17,1 19,2 20,7 6 3 10 5 WNW 1014,9 17 0 0,0
17.10.2018 20:00:00 18,8 14,7 17,7 19,3 20,7 9 5 11 6 NNW 1014,8 8 0 0,0
17.10.2018 19:00:00 19,8 14,6 18,4 19,3 20,7 4 2 8 4 NNW 1014,5 11 0 0,0
17.10.2018 18:00:00 20,6 13,8 20,0 19,2 20,7 3 2 10 5 N 1014,4 6 0 0,0
17.10.2018 17:00:00 21,2 13,4 20,6 19,1 20,7 4 2 14 7 N 1014,7 14 0 0,0
17.10.2018 16:00:00 21,9 12,2 22,3 18,9 20,7 7 4 15 8 NNE 1014,9 35 0 0,0
17.10.2018 15:00:00 21,6 13,0 23,3 18,6 20,7 9 5 15 8 N 1015,2 41 4 0,0
17.10.2018 14:00:00 20,3 14,0 20,2 18,4 20,7 7 4 14 8 NNW 1016,0 41 6 0,0
17.10.2018 13:00:00 18,4 14,3 18,3 18,2 20,7 10 5 13 7 N 1016,9 16 0 0,0
17.10.2018 12:00:00 17,1 13,4 15,9 18,1 20,7 9 5 12 7 NW 1017,4 20 0 0,0
17.10.2018 11:00:00 15,9 13,2 15,2 18,1 20,7 3 2 10 5 ENE 1017,8 20 0 0,2
17.10.2018 10:00:00 15,7 13,5 15,0 18,1 20,7 7 4 13 7 N 1017,6 18 0 0,0
17.10.2018 09:00:00 15,2 13,7 14,4 18,2 20,7 4 2 10 5 N 1017,6 11 0 0,0
17.10.2018 08:00:00 14,9 13,6 12,6 18,3 20,8 9 5 12 7 NE 1017,5 9 0 0,0
17.10.2018 07:00:00 15,0 13,4 13,2 18,3 20,7 0 0 10 6 N 1017,4 7 0 0,0
17.10.2018 06:00:00 15,7 13,9 14,2 18,4 20,7 4 2 6 4 WNW 1017,5 10 0 0,0
17.10.2018 05:00:00 15,6 13,6 14,0 18,4 20,7 5 3 8 5 NE 1017,6 13 0 0,0
17.10.2018 04:00:00 16,8 13,9 15,3 18,5 20,8 6 3 17 9 WSW 1017,7 13 0 0,0
17.10.2018 03:00:00 16,4 14,1 15,4 18,5 20,8 10 5 15 8 WNW 1018,0 10 0 0,2
17.10.2018 02:00:00 16,2 13,9 15,3 18,6 20,8 6 3 11 6 NNW 1018,6 11 0 0,0
17.10.2018 01:00:00 16,6 14,4 15,2 18,7 20,8 4 2 8 4 WSW 1018,8 10 0 0,0
17.10.2018 00:00:00 16,6 14,4 15,3 18,7 20,8 4 2 9 5 WNW 1018,9 9 0 0,0
16.10.2018 23:00:00 16,8 14,8 16,1 18,8 20,8 6 4 9 5 NNW 1019,3 10 0 0,0
16.10.2018 22:00:00 16,6 14,6 15,1 18,9 20,8 8 4 11 6 E 1019,4 10 0 0,0
16.10.2018 21:00:00 16,5 14,1 12,7 19,0 20,8 8 4 10 5 NNW 1019,1 13 0 0,0
16.10.2018 20:00:00 16,4 13,9 14,4 19,1 20,8 5 3 14 8 NE 1018,8 14 0 0,0
16.10.2018 19:00:00 17,6 14,3 16,8 19,1 20,8 11 6 16 9 N 1018,4 18 0 0,0
16.10.2018 18:00:00 18,6 14,5 18,3 19,1 20,8 12 6 22 12 N 1018,0 19 0 0,0
16.10.2018 17:00:00 19,0 15,3 19,0 18,9 20,8 15 8 25 13 NNE 1018,0 17 4 0,0
16.10.2018 16:00:00 19,7 15,8 20,8 18,7 20,8 12 7 22 12 N 1017,9 18 5 0,0
16.10.2018 15:00:00 18,8 15,8 18,6 18,5 20,9 18 10 26 14 NNE 1017,9 13 11 0,0
16.10.2018 14:00:00 18,0 15,3 17,1 18,3 20,8 18 10 27 15 NE 1018,3 11 0 0,2
16.10.2018 13:00:00 17,7 15,0 17,1 18,2 20,8 16 9 26 14 NE 1018,6 10 0 0,0
16.10.2018 12:00:00 17,5 14,8 16,8 18,2 20,8 18 10 27 14 NE 1018,5 12 0 0,0
16.10.2018 11:00:00 17,2 14,8 15,9 18,2 20,9 13 7 29 16 NE 1017,9 12 0 0,2
16.10.2018 10:00:00 16,5 14,5 15,6 18,2 20,9 17 9 35 19 NE 1017,5 6 0 0,2
16.10.2018 09:00:00 16,6 14,4 15,3 18,2 20,8 16 9 21 12 NE 1017,0 12 0 0,0
16.10.2018 08:00:00 16,1 14,5 15,3 18,2 20,9 9 5 19 10 NNE 1015,9 10 0 0,0
16.10.2018 07:00:00 16,1 14,5 15,1 18,2 20,9 13 7 26 14 NE 1015,5 9 0 0,0
16.10.2018 06:00:00 16,2 14,4 15,4 18,3 20,9 17 9 31 17 NE 1015,5 11 0 0,6
16.10.2018 05:00:00 17,0 15,0 16,2 18,3 20,9 23 13 41 22 E 1014,9 11 0 0,2
16.10.2018 04:00:00 17,2 15,4 15,9 18,3 20,9 31 17 44 24 ESE 1014,7 6 0 0,8
16.10.2018 03:00:00 17,1 14,7 15,8 18,4 20,9 26 14 48 26 E 1015,0 14 0 0,0
16.10.2018 02:00:00 17,3 15,3 15,5 18,5 20,9 36 19 72 39 E 1014,5 17 0 0,4
16.10.2018 01:00:00 16,3 14,5 15,7 18,6 20,9 37 20 66 36 E 1014,4 3,9 0 2,8
16.10.2018 00:00:00 16,9 15,1 15,9 18,6 20,9 31 17 44 24 E 1014,1 9 0 1,0
15.10.2018 23:00:00 16,5 15,0 15,9 18,7 20,9 31 17 52 28 E 1014,0 4,1 0 0,2
15.10.2018 22:00:00 17,3 15,3 16,1 18,7 20,9 37 20 51 28 E 1013,5 12 0 0,0
15.10.2018 21:00:00 17,3 15,5 16,2 18,8 20,9 32 17 49 26 E 1012,9 16 0 0,0
15.10.2018 20:00:00 17,1 15,4 16,6 18,8 20,9 37 20 59 32 E 1012,3 5 0 0,2
15.10.2018 19:00:00 18,5 15,9 17,6 18,8 20,9 42 23 66 36 ESE 1011,4 14 0 0,0
15.10.2018 18:00:00 18,4 16,2 16,4 18,8 20,9 41 22 61 33 ESE 1010,6 7 0 0,0
15.10.2018 17:00:00 16,7 14,7 16,3 18,8 20,9 22 12 76 41 ESE 1009,8 4,4 0 3,0
15.10.2018 16:00:00 19,6 15,7 16,5 18,9 20,9 56 30 80 43 ESE 1009,8 11 0 9,8
15.10.2018 15:00:00 17,5 15,1 16,1 19,0 20,9 21 12 40 21 E 1009,8 9 0 2,0
15.10.2018 14:00:00 17,6 14,7 16,3 19,0 20,9 23 12 46 25 ENE 1009,4 9 0 1,0
15.10.2018 13:00:00 18,6 14,9 16,6 19,0 20,9 36 19 57 31 E 1009,6 12 0 1,2
15.10.2018 12:00:00 19,2 14,9 17,1 19,0 20,9 43 23 70 38 E 1009,9 10 0 0,2
15.10.2018 11:00:00 19,5 15,4 16,7 19,1 20,9 53 29 83 45 ESE 1009,4 8 0 0,2
15.10.2018 10:00:00 20,6 13,3 18,7 19,1 20,9 45 24 74 40 ESE 1009,0 15 0 0,0
15.10.2018 09:00:00 20,6 14,3 17,7 19,2 20,9 49 26 72 39 ESE 1008,8 15 0 0,0
15.10.2018 08:00:00 20,4 15,2 19,6 19,2 20,9 47 25 68 37 ESE 1008,7 13 0 0,0
15.10.2018 07:00:00 20,4 15,4 20,0 19,2 20,9 49 26 70 38 ESE 1008,7 13 0 0,0
15.10.2018 06:00:00 20,5 15,7 18,1 19,3 20,9 45 24 65 35 ESE 1009,2 13 0 0,0
15.10.2018 05:00:00 18,6 13,0 17,7 19,4 20,9 23 13 34 18 E 1009,7 20 0 0,0
15.10.2018 04:00:00 18,6 13,7 17,3 19,5 20,9 22 12 36 19 E 1010,1 20 0 0,0
15.10.2018 03:00:00 20,0 15,0 19,3 19,5 20,9 36 19 53 29 E 1010,6 14 0 0,0
15.10.2018 02:00:00 20,5 16,1 19,8 19,6 21,0 40 21 56 31 ESE 1011,3 13 0 0,0
15.10.2018 01:00:00 20,7 16,1 20,0 19,6 20,9 39 21 57 31 ESE 1012,1 14 0 0,0
15.10.2018 00:00:00 20,5 15,9 19,7 19,6 20,9 38 21 60 32 ESE 1012,3 15 0 0,0
14.10.2018 23:00:00 20,4 15,8 19,9 19,7 20,9 39 21 56 31 ESE 1012,8 14 0 0,0
14.10.2018 22:00:00 20,4 16,4 20,0 19,8 21,0 40 22 58 32 ESE 1012,7 14 0 0,0
14.10.2018 21:00:00 20,4 16,4 20,0 19,8 20,9 41 22 59 32 SE 1012,6 14 0 0,0
14.10.2018 20:00:00 20,5 16,7 20,0 19,8 20,9 42 23 64 35 SE 1012,7 11 0 0,0
14.10.2018 19:00:00 20,5 16,7 19,9 19,9 20,9 43 23 61 33 SE 1012,3 11 0 0,0
14.10.2018 18:00:00 20,5 16,7 19,6 19,9 20,9 46 25 64 35 SE 1012,1 11 0 0,0
14.10.2018 17:00:00 20,7 16,7 18,5 20,0 20,9 42 23 63 34 SE 1012,3 12 0 0,2
14.10.2018 16:00:00 20,2 17,0 18,3 20,0 20,9 45 25 63 34 SE 1012,5 7 0 1,0
14.10.2018 15:00:00 20,2 16,8 18,7 20,0 20,9 47 26 68 37 SE 1012,6 6 0 0,2
14.10.2018 14:00:00 20,6 17,6 20,4 19,9 20,9 48 26 66 36 SE 1013,3 9 0 0,0
14.10.2018 13:00:00 20,9 18,3 19,8 19,9 20,9 46 25 63 34 SE 1014,0 9 0 0,2
14.10.2018 12:00:00 20,8 18,2 19,5 19,8 20,9 42 23 58 31 SE 1014,3 11 0 0,0
14.10.2018 11:00:00 20,7 18,1 19,1 19,8 20,9 41 22 54 29 SE 1014,4 10 0 0,0
14.10.2018 10:00:00 20,5 17,9 18,7 19,8 20,9 36 19 50 27 ESE 1014,8 10 0 0,0
14.10.2018 09:00:00 20,2 17,0 18,6 19,8 20,9 34 18 51 28 ESE 1014,6 11 0 0,0
14.10.2018 08:00:00 20,4 16,8 20,0 19,9 20,9 38 20 51 28 SE 1014,4 15 0 0,0
14.10.2018 07:00:00 20,4 16,6 19,9 19,9 20,9 38 20 51 28 SE 1014,7 14 0 0,0
14.10.2018 06:00:00 20,2 16,6 19,9 20,0 20,9 34 19 49 26 ESE 1015,1 14 0 0,0
14.10.2018 05:00:00 20,3 16,7 20,0 20,0 20,9 33 18 48 26 ESE 1015,6 15 0 0,0
14.10.2018 04:00:00 20,3 16,7 19,9 20,1 20,9 31 17 41 22 ESE 1016,2 13 0 0,0
14.10.2018 03:00:00 20,4 16,8 20,0 20,2 20,9 26 14 39 21 ESE 1016,8 13 0 0,0
14.10.2018 02:00:00 20,4 17,4 20,0 20,2 20,9 25 13 36 19 SE 1017,4 13 0 0,0
14.10.2018 01:00:00 20,5 17,3 20,0 20,3 20,9 25 13 36 20 SE 1017,6 14 0 0,0
14.10.2018 00:00:00 20,5 17,5 20,1 20,4 20,9 26 14 35 19 SE 1018,0 15 0 0,0
13.10.2018 23:00:00 20,5 17,7 20,1 20,5 21,0 23 12 31 17 SE 1018,2 18 0 0,0
13.10.2018 22:00:00 20,4 18,0 20,1 20,5 21,0 21 11 30 16 SSE 1018,3 15 0 0,0

tt = Température de l'air
td = dewpoint
tt 5cm = Température de l'air 5cm
tt -20cm = Température de l'air -20cm
tt -100cm = Température de l'air -100cm
ff = Vitesse du vent
fx = gusts
dd = Direction du vent
ppp = reduced air pressure
vv = visibility
sd = Ensoleillement
rr = Quantités de précipitations

stations d'obs. à proximité